Search this site

788days since
Valentia Sprint

725days since
Club Race

Duathlon 2011 Hall of Fame


The following results are based on the results from the 2011 Supersprint Series. Although different course distances were used the results are normalised and presented as km/hr.

Top 30 Cycles of 2011...


Race # Race Pos Name  Speed km/hr
2011_4 1 David Fagan 38.09
2011_3 1 David Fagan 37.81
2011_3 2 Paul Connolly 36.48
2011_4 2 David Cahill 36.09
2011_5 1 Ronan Bracken 35.87
2011_5 2 Paul Connolly 35.84
2011_3 3 David Cahill 35.69
2011_1 1 David Cahill 35.40
2011_1 2 Aidan Daly 34.61
2011_1 3 Douglas Bates 34.59
2011_5 3 Enda Mimnagh 34.32
2011_1 4 JP O Brien 34.29
2011_4 3 Aidan Gorry 34.11
2011_5 4 Douglas Bates 33.87
2011_5 5 Michael Walshe 33.84
2011_5 6 John Walsh 33.80
2011_2 1 Douglas Bates 33.46
2011_5 7 Gerry O'Doherty 33.29
2011_3 4 Aidan Daly 33.17
2011_5 8 Paul Mc Dermott 33.10
2011_3 5 Gerry O'Doherty 33.09
2011_5 9 Eoin Clarke 33.03
2011_4 4 Gerry O'Doherty 32.98
2011_3 6 Sean Gaffney 32.92
2011_4 5 Eoin Clarke 32.83
2011_2 2 Paula Murray 32.71
2011_1 5 Paula Murray 32.64
2011_4 6 Enda Mimnagh 32.42
2011_3 7 Michael Walshe 32.37
2011_3 8 Aidan Gorry 32.35
2011_3 9 Vincent  O'Brien 32.21


Top 30 T1 Times of 2011...

Race T1 Pos Name  T1 Time
2011_2 1 Enda Mimnagh 00:00:23
2011_5 1 Douglas Bates 00:00:23
2011_5 2 Mick Duggan 00:00:24
2011_4 1 Enda Mimnagh 00:00:26
2011_5 3 Frankie Wright 00:00:27
2011_2 2 Douglas Bates 00:00:28
2011_5 4 Michael Walshe 00:00:28
2011_5 4 John Walsh 00:00:28
2011_3 1 Mick Duggan 00:00:29
2011_3 2 Paul Connolly 00:00:30
2011_5 6 Gerard Flynn 00:00:30
2011_5 6 Gerry O'Doherty 00:00:30
2011_3 3 Breda Daly 00:00:30
2011_4 2 John Walsh 00:00:31
2011_3 4 David Cahill 00:00:31
2011_3 4 David Fagan 00:00:31
2011_3 6 Frankie Wright 00:00:32
2011_5 8 Paul Connolly 00:00:32
2011_5 9 Emer Fitzpatrick 00:00:32
2011_5 9 Olivia Munnelly 00:00:32
2011_4 3 David Cahill 00:00:33
2011_3 7 Gerry O'Doherty 00:00:34
2011_1 1 Elizabeth Carr 00:00:34
2011_5 11 Enda Mimnagh 00:00:34
2011_3 8 Vincent  O'Brien 00:00:35
2011_4 4 David Fagan 00:00:35
2011_1 2 Aidan Daly 00:00:35
2011_3 9 Michael Walshe 00:00:35
2011_2 3 Nigel Hogan 00:00:35
2011_4 5 Gerry O'Doherty 00:00:35



Top 30 Run2 Times of 2011...

Race # Run 2 Pos Name Time (m:s)
2011_1 1 JP O Brien 00:07:45
2011_3 1 Aidan Gorry 00:07:47
2011_3 2 Paul Connolly 00:07:51
2011_4 1 Colm Walshe 00:07:52
2011_3 3 David Fagan 00:07:55
2011_1 2 Colm Walshe 00:07:57
2011_4 2 David Fagan 00:07:59
2011_4 3 Aidan Gorry 00:07:59
2011_5 1 Paul Connolly 00:08:02
2011_1 3 David Cahill 00:08:12
2011_3 4 David Cahill 00:08:13
2011_5 2 Gerry O'Doherty 00:08:13
2011_2 1 Aidan Gorry 00:08:18
2011_5 3 Michelle O'Halleron 00:08:25
2011_3 5 Gerry O'Doherty 00:08:31
2011_4 4 David Cahill 00:08:34
2011_4 5 Gerry O'Doherty 00:08:36
2011_2 2 Gerry O'Doherty 00:08:38
2011_4 6 Eoin Clarke 00:08:38
2011_1 4 Gerry O'Doherty 00:08:39
2011_1 5 Mick Duggan 00:08:44
2011_3 6 Mick Duggan 00:08:44
2011_5 4 John Walsh 00:08:44
2011_1 6 Tommy Carr 00:08:49
2011_4 7 John Walsh 00:08:50
2011_5 5 Eoin Clarke 00:08:50
2011_5 6 James Carton 00:08:56
2011_5 7 Ronan Bracken 00:08:56
2011_3 7 Tommy Carr 00:08:57
2011_1 7 Aidan Daly 00:08:59
2011_5 8 Niall Gallagher 00:09:01

Comments